Anniston, AL

11:36 PM CDT on August 25, 2019 (GMT -0500)
Anniston Metro

Weather History for KANB - July, 2019

Change the Weather History Date:

Sunday, July 21, 2019

  Actual Average Record
Temperature  
Mean Temperature 82 °F 80 °F  
Max Temperature 90 °F 90 °F 101 °F (1952)
Min Temperature 73 °F 70 °F 57 °F (2009)
Cooling Degree Days 16    
Growing Degree Days 31 (Base 50)    
Moisture  
Dew Point 72 °F    
Average Humidity 75    
Maximum Humidity 93    
Minimum Humidity 56    
Precipitation  
Precipitation 0.00 in 0.15 in 1.03 in (1995)
Month to date precipitation 3.80 3.17  
Year to date precipitation 35.67 30.18  
Sea Level Pressure  
Sea Level Pressure 30.03 in    
Wind  
Wind Speed 2 mph (SW)    
Max Wind Speed 10 mph    
Max Gust Speed 13 mph    
Visibility 10 miles    
Events      
T = Trace of Precipitation, MM = Missing Value Source: NWS Daily Summary

Daily Weather History Graph

Daily Weather History Graph

Search for Another Location

Airport or City:

Astronomy

Jul. 21, 2019 Rise Set
Actual Time 5:48 AM CDT 7:51 PM CDT
Civil Twilight 5:20 AM CDT 8:19 PM CDT
Nautical Twilight 4:45 AM CDT 8:53 PM CDT
Astronomical Twilight 4:09 AM CDT 9:29 PM CDT
Moon 10:57 PM CDT (7/21) 9:57 AM CDT (7/21)
Length of Visible Light 14h 59m
Length of Day
14h 03m
Waning Gibbous, 80% of the Moon is Illuminated
Jul 21
Waning Gibbous
Jul 24
Last Quarter
Jul 31
New
Aug 7
First Quarter
Aug 15
Full

Hourly Weather History & Observations

Time (CDT) Temp. Heat Index Dew Point Humidity Pressure Visibility Wind Dir Wind Speed Gust Speed Precip Events Conditions
12:38 AM 73.9 °F - 72.0 °F 93% 30.04 in 9.0 mi Calm Calm - N/A   Mostly Cloudy
12:53 AM 73.9 °F - 72.0 °F 93% 29.99 in 10.0 mi Calm Calm - N/A   Mostly Cloudy
1:12 AM 73.9 °F - 72.0 °F 93% 30.03 in 10.0 mi Calm Calm - N/A   Partly Cloudy
1:49 AM 73.4 °F - 71.6 °F 94% 30.03 in 10.0 mi Calm Calm - N/A   Mostly Cloudy
1:53 AM 73.9 °F - 72.0 °F 93% 29.99 in 10.0 mi Calm Calm - N/A   Scattered Clouds
2:53 AM 73.0 °F - 71.1 °F 93% 30.00 in 10.0 mi Calm Calm - N/A   Clear
3:14 AM 73.0 °F - 71.1 °F 93% 30.03 in 10.0 mi SW 3.5 mph - N/A   Mostly Cloudy
3:35 AM 73.0 °F - 72.0 °F 96% 30.04 in 9.0 mi WSW 4.6 mph - N/A   Overcast
3:53 AM 73.0 °F - 72.0 °F 96% 30.02 in 10.0 mi WSW 3.5 mph - N/A   Overcast
4:53 AM 73.0 °F - 71.1 °F 93% 30.04 in 10.0 mi SW 3.5 mph - N/A   Overcast
5:53 AM 73.0 °F - 71.1 °F 93% 30.05 in 10.0 mi South 3.5 mph - N/A   Overcast
6:07 AM 73.0 °F - 71.1 °F 93% 30.08 in 10.0 mi Calm Calm - N/A   Mostly Cloudy
6:28 AM 73.0 °F - 71.1 °F 93% 30.09 in 10.0 mi Calm Calm - N/A   Mostly Cloudy
6:53 AM 73.9 °F - 71.1 °F 91% 30.07 in 10.0 mi Calm Calm - N/A   Overcast
7:08 AM 73.9 °F - 71.1 °F 91% 30.09 in 10.0 mi Calm Calm - N/A   Overcast
7:53 AM 75.0 °F - 71.1 °F 87% 30.06 in 10.0 mi Calm Calm - N/A   Overcast
8:29 AM 75.9 °F - 72.0 °F 87% 30.08 in 10.0 mi SW 4.6 mph - N/A   Scattered Clouds
8:53 AM 79.0 °F - 72.0 °F 79% 30.06 in 10.0 mi West 4.6 mph - N/A   Partly Cloudy
9:53 AM 82.0 °F 86.7 °F 72.0 °F 71% 30.06 in 10.0 mi Variable 3.5 mph - N/A   Clear
10:53 AM 84.0 °F 89.6 °F 72.0 °F 67% 30.06 in 10.0 mi Variable 3.5 mph - N/A   Mostly Cloudy
11:53 AM 84.0 °F 89.0 °F 71.1 °F 65% 30.06 in 10.0 mi Variable 3.5 mph - N/A   Scattered Clouds
12:53 PM 81.0 °F 85.2 °F 72.0 °F 74% 30.05 in 10.0 mi WSW 8.1 mph - N/A   Mostly Cloudy
2:53 PM 88.0 °F 94.7 °F 72.0 °F 59% 29.99 in 10.0 mi Calm Calm - N/A   Partly Cloudy
3:53 PM 87.1 °F 93.6 °F 72.0 °F 61% 29.98 in 10.0 mi SSE 4.6 mph - N/A   Mostly Cloudy
4:53 PM 89.1 °F 95.0 °F 71.1 °F 55% 29.96 in 10.0 mi East 3.5 mph - N/A   Mostly Cloudy
5:53 PM 88.0 °F 93.8 °F 71.1 °F 57% 29.97 in 10.0 mi SW 8.1 mph - N/A   Partly Cloudy
6:53 PM 84.9 °F 90.1 °F 71.1 °F 63% 29.97 in 10.0 mi South 3.5 mph - N/A   Clear
7:53 PM 80.1 °F 84.2 °F 73.0 °F 79% 29.98 in 10.0 mi SSW 3.5 mph - N/A   Clear
8:53 PM 78.1 °F - 73.9 °F 87% 29.99 in 10.0 mi Calm Calm - N/A   Partly Cloudy
9:53 PM 78.1 °F - 72.0 °F 81% 30.00 in 10.0 mi Calm Calm - N/A   Clear
10:53 PM 75.0 °F - 72.0 °F 90% 30.00 in 10.0 mi Calm Calm - N/A   Clear
11:53 PM 73.9 °F - 72.0 °F 93% 30.00 in 10.0 mi Calm Calm - N/A   Partly Cloudy